Ft Lauderdale, FL

11:32 AM EDT on June 22, 2017 (GMT -0400)
Fort Lauderdale-Hollywood International

Weather History for KFLL - January, 2014

Change the Weather History Date:

Friday, January 10, 2014

  Actual Average Record
Temperature  
Mean Temperature 75 °F 69 °F  
Max Temperature 78 °F 76 °F 88 °F (1914)
Min Temperature 71 °F 61 °F 32 °F (1970)
Degree Days  
Heating Degree Days 0 2  
Month to date heating degree days 18 20  
Since 1 July heating degree days 22 52  
Cooling Degree Days 10 5  
Month to date cooling degree days 61 59  
Year to date cooling degree days 61 59  
Growing Degree Days 24 (Base 50)    
Moisture  
Dew Point 71 °F    
Average Humidity 87    
Maximum Humidity 94    
Minimum Humidity 79    
Precipitation  
Precipitation 0.00 in 0.08 in 3.03 in (1986)
Month to date precipitation 1.78 0.83  
Year to date precipitation 1.78 0.83  
Snow  
Snow 0.00 in - - ()
Month to date snowfall 0.0  
Since 1 July snowfall 0.0  
Snow Depth 0.00 in    
Sea Level Pressure  
Sea Level Pressure 30.12 in    
Wind  
Wind Speed 12 mph (ESE)    
Max Wind Speed 23 mph    
Max Gust Speed 26 mph    
Visibility 10 miles    
Events      
T = Trace of Precipitation, MM = Missing Value Source: NWS Daily Summary

Daily Weather History Graph

Daily Weather History Graph

Search for Another Location

Airport or City:

Trip Planner

Search our weather history database for the weather conditions in past years. The results will help you decide how hot, cold, wet, or windy it might be!

Date:

Astronomy

Jan. 10, 2014 Rise Set
Actual Time 7:09 AM EST 5:47 PM EST
Civil Twilight 6:44 AM EST 6:12 PM EST
Nautical Twilight 6:16 AM EST 6:40 PM EST
Astronomical Twilight 5:48 AM EST 7:08 PM EST
Moon 1:42 PM EST (1/10) 2:24 AM EST (1/10)
Length of Visible Light 11h 27m
Length of Day
10h 37m
Waxing Gibbous, 75% of the Moon is Illuminated
Jan 10
Waxing Gibbous
Jan 15
Full
Jan 24
Last Quarter
Jan 30
New
Feb 6
First Quarter

Hourly Weather History & Observations

Time (EST) Temp. Dew Point Humidity Pressure Visibility Wind Dir Wind Speed Gust Speed Precip Events Conditions
12:53 AM 73.0 °F 70.0 °F 90% 30.15 in 10.0 mi SE 12.7 mph - N/A   Scattered Clouds
1:53 AM 73.0 °F 71.1 °F 93% 30.14 in 10.0 mi SE 10.4 mph - N/A   Scattered Clouds
2:53 AM 72.0 °F 70.0 °F 93% 30.13 in 10.0 mi SE 9.2 mph - N/A   Scattered Clouds
3:53 AM 73.4 °F 69.8 °F 88% 30.13 in 10.0 mi SE 10.4 mph - N/A   Mostly Cloudy
4:53 AM 72.0 °F 70.0 °F 93% 30.12 in 10.0 mi ESE 12.7 mph - N/A   Mostly Cloudy
5:53 AM 71.1 °F 68.0 °F 90% 30.13 in 10.0 mi ESE 6.9 mph - N/A   Scattered Clouds
6:24 AM 71.6 °F 69.8 °F 94% 30.14 in 10.0 mi ESE 6.9 mph - N/A   Mostly Cloudy
6:53 AM 72.0 °F 69.1 °F 91% 30.15 in 10.0 mi ESE 4.6 mph - N/A   Overcast
7:34 AM 73.4 °F 69.8 °F 88% 30.15 in 10.0 mi ESE 9.2 mph - N/A   Mostly Cloudy
7:53 AM 73.0 °F 70.0 °F 90% 30.15 in 10.0 mi ESE 9.2 mph - N/A   Mostly Cloudy
8:53 AM 75.0 °F 71.1 °F 87% 30.16 in 10.0 mi ESE 13.8 mph - N/A   Mostly Cloudy
9:53 AM 75.9 °F 71.1 °F 85% 30.16 in 10.0 mi SE 17.3 mph - N/A   Partly Cloudy
10:24 AM 75.2 °F 71.6 °F 89% 30.15 in 10.0 mi SE 18.4 mph 24.2 mph N/A   Mostly Cloudy
10:53 AM 77.0 °F 72.0 °F 84% 30.14 in 10.0 mi SE 18.4 mph 25.3 mph N/A   Mostly Cloudy
11:07 AM 77.0 °F 71.6 °F 83% 30.14 in 10.0 mi SE 20.7 mph 26.5 mph N/A   Mostly Cloudy
11:53 AM 77.0 °F 71.1 °F 82% 30.13 in 10.0 mi SSE 17.3 mph 23.0 mph N/A   Mostly Cloudy
12:53 PM 78.1 °F 72.0 °F 81% 30.10 in 10.0 mi SE 16.1 mph - N/A   Mostly Cloudy
1:53 PM 78.1 °F 72.0 °F 81% 30.08 in 10.0 mi SE 15.0 mph 19.6 mph N/A   Mostly Cloudy
2:53 PM 75.9 °F 71.1 °F 85% 30.07 in 10.0 mi SE 15.0 mph - N/A   Mostly Cloudy
3:53 PM 75.9 °F 71.1 °F 85% 30.07 in 10.0 mi SE 12.7 mph - N/A   Scattered Clouds
4:53 PM 75.9 °F 72.0 °F 87% 30.08 in 10.0 mi SE 11.5 mph - N/A   Mostly Cloudy
5:53 PM 75.0 °F 71.1 °F 87% 30.08 in 10.0 mi SE 12.7 mph - N/A   Scattered Clouds
6:53 PM 75.0 °F 72.0 °F 90% 30.08 in 10.0 mi ESE 10.4 mph - N/A   Scattered Clouds
7:44 PM 75.2 °F 71.6 °F 89% 30.10 in 10.0 mi ESE 8.1 mph - N/A   Mostly Cloudy
7:53 PM 75.0 °F 72.0 °F 90% 30.10 in 10.0 mi ESE 9.2 mph - N/A   Mostly Cloudy
8:12 PM 75.2 °F 71.6 °F 89% 30.11 in 10.0 mi ESE 9.2 mph - N/A   Mostly Cloudy
8:53 PM 75.0 °F 73.0 °F 94% 30.11 in 10.0 mi ESE 9.2 mph - N/A   Mostly Cloudy
9:45 PM 73.4 °F 73.4 °F 100% 30.11 in 10.0 mi ESE 8.1 mph - N/A   Mostly Cloudy
9:53 PM 75.0 °F 73.0 °F 94% 30.11 in 10.0 mi ESE 9.2 mph - N/A   Mostly Cloudy
10:32 PM 75.2 °F 73.4 °F 94% 30.11 in 10.0 mi ESE 9.2 mph - N/A   Scattered Clouds
10:53 PM 75.0 °F 73.0 °F 94% 30.11 in 10.0 mi ESE 8.1 mph - N/A   Scattered Clouds
11:53 PM 73.9 °F 73.0 °F 97% 30.10 in 10.0 mi SE 8.1 mph - N/A   Scattered Clouds